TimeMST,TemperatureF,Dew PointF,Humidity,Sea Level PressureIn,VisibilityMPH,Wind Direction,Wind SpeedMPH,Gust SpeedMPH,PrecipitationIn,Events,Conditions,WindDirDegrees,DateUTC
12:53 AM,33.1,28.9,85,29.79,10.0,Variable,4.6,-,N/A,,Overcast,0,2012-12-15 07:53:00
1:53 AM,33.1,28.9,85,29.81,10.0,Calm,Calm,-,N/A,,Overcast,0,2012-12-15 08:53:00
2:53 AM,35.1,28.0,76,29.82,10.0,Calm,Calm,-,N/A,,Overcast,0,2012-12-15 09:53:00
3:53 AM,37.9,21.0,51,29.80,10.0,South,6.9,-,N/A,,Overcast,190,2012-12-15 10:53:00
4:53 AM,37.0,21.0,52,29.81,10.0,SW,10.4,-,N/A,,Overcast,220,2012-12-15 11:53:00
5:53 AM,36.0,21.0,55,29.82,10.0,WNW,6.9,-,N/A,,Overcast,290,2012-12-15 12:53:00
6:53 AM,34.0,21.9,61,29.83,10.0,Calm,Calm,-,N/A,,Overcast,0,2012-12-15 13:53:00
7:53 AM,33.1,21.9,64,29.84,10.0,Calm,Calm,-,N/A,,Mostly Cloudy,0,2012-12-15 14:53:00
8:53 AM,35.1,23.0,61,29.85,10.0,Calm,Calm,-,N/A,,Clear,0,2012-12-15 15:53:00
9:53 AM,37.0,21.9,54,29.84,10.0,East,5.8,-,N/A,,Clear,90,2012-12-15 16:53:00
10:53 AM,39.9,23.0,51,29.81,10.0,South,3.5,-,N/A,,Scattered Clouds,190,2012-12-15 17:53:00
11:53 AM,41.0,23.0,49,29.78,10.0,North,8.1,-,N/A,,Overcast,350,2012-12-15 18:53:00
12:53 PM,39.0,23.0,53,29.78,10.0,NNW,8.1,-,N/A,,Partly Cloudy,340,2012-12-15 19:53:00
1:50 PM,37.4,26.6,65,29.82,2.5,Calm,Calm,-,0.00,Snow,Light Snow,0,2012-12-15 20:50:00
1:53 PM,37.0,27.0,67,29.78,1.8,Variable,3.5,-,0.00,Snow,Light Snow,0,2012-12-15 20:53:00
1:59 PM,37.4,26.6,65,29.81,3.0,South,3.5,-,0.00,Snow,Light Snow,180,2012-12-15 20:59:00
2:06 PM,37.4,26.6,65,29.81,9.0,Calm,Calm,-,0.00,,Mostly Cloudy,0,2012-12-15 21:06:00
2:53 PM,39.0,26.1,60,29.76,10.0,North,4.6,-,0.00,,Mostly Cloudy,10,2012-12-15 21:53:00
3:53 PM,39.0,25.0,57,29.74,10.0,ENE,4.6,-,N/A,,Overcast,60,2012-12-15 22:53:00
4:53 PM,37.0,25.0,62,29.75,10.0,NE,3.5,-,N/A,,Overcast,50,2012-12-15 23:53:00
5:53 PM,35.1,25.0,67,29.75,10.0,Calm,Calm,-,N/A,,Overcast,0,2012-12-16 00:53:00
6:53 PM,33.1,27.0,78,29.76,10.0,West,4.6,-,N/A,,Overcast,270,2012-12-16 01:53:00
7:53 PM,30.9,26.1,82,29.78,10.0,Calm,Calm,-,N/A,,Overcast,0,2012-12-16 02:53:00
8:53 PM,30.9,27.0,85,29.78,10.0,WNW,3.5,-,N/A,,Overcast,300,2012-12-16 03:53:00
9:19 PM,30.2,28.4,93,29.80,10.0,Calm,Calm,-,N/A,,Overcast,0,2012-12-16 04:19:00
9:27 PM,30.2,28.4,93,29.80,10.0,WNW,3.5,-,N/A,,Overcast,300,2012-12-16 04:27:00
9:53 PM,30.9,28.9,92,29.78,10.0,WNW,3.5,-,N/A,,Overcast,300,2012-12-16 04:53:00
10:53 PM,30.9,30.0,96,29.78,9.0,Calm,Calm,-,0.00,Snow,Light Snow,0,2012-12-16 05:53:00
11:53 PM,32.0,30.0,92,29.78,10.0,Calm,Calm,-,0.00,,Overcast,0,2012-12-16 06:53:00